Theta_e
340 340 341 343 344 346 348 348 349 346 347 348 347 346 347 347 347 347 347 346 344 347 347 343 342 348 349 350 351 350 350 349 350 351 349 349 349 349 349 350 350 350 348
340 341 343 343 344 344 346 345 347 348 346 347 344 347 348 347 347 347 345 345 347 348 349 348 349 350 351 351 350 350 351 350 350 350 348 351 349 348 349 348 345 344 350
340 340 343 344 344 344 345 346 347 346 347 348 347 348 348 348 348 347 348 348 349 349 349 349 350 350 350 351 351 352 351 351 351 351 351 353 352 347 347 347 348 347 346
340 343 342 344 345 344 344 346 346 347 347 347 348 347 348 350 350 350 350 350 350 350 350 350 350 352 353 353 353 353 351 352 352 351 349 350 350 353 353 347 348 348 349
339 342 344 344 344 345 345 345 346 346 347 348 348 349 350 351 350 346 349 350 350 350 351 350 351 352 352 352 352 354 352 353 353 351 349 349 349 350 349 352 347 347 347
339 339 343 345 345 346 346 345 346 347 347 348 349 349 350 351 351 351 349 351 352 352 351 352 352 352 351 350 350 352 354 352 351 351 346 344 348 345 347 348 346 344 343
339 339 340 345 346 347 347 347 347 347 348 348 349 349 350 352 352 351 352 353 353 352 352 352 353 352 352 352 352 352 354 351 350 347 345 341 348 350 347 346 346 337 333
337 339 339 343 346 347 347 348 348 349 348 348 349 350 350 352 353 352 351 352 352 353 352 353 353 352 352 353 352 352 352 352 349 337 336 343 345 347 350 344 342 337 331
337 338 338 340 344 346 348 348 348 349 348 349 350 351 351 352 354 355 355 355 356 355 354 354 354 353 352 350 349 348 350 350 346 337 339 343 347 349 344 340 340 331 336
338 337 337 339 341 344 346 348 349 349 349 349 350 351 352 352 352 355 355 354 356 357 356 355 355 351 349 348 337 342 349 348 345 340 336 344 346 344 344 338 334 333 331
336 337 337 340 341 343 345 348 349 350 351 351 351 352 353 353 354 354 355 356 356 354 354 354 352 350 340 341 336 339 346 344 344 341 336 338 341 340 342 338 336 335 334
338 339 340 342 344 347 349 350 350 351 351 352 352 353 354 354 354 354 354 355 355 355 355 354 351 345 342 342 341 340 341 341 342 345 341 338 338 338 338 338 336 335 335
349 347 344 346 351 353 354 355 355 355 354 354 354 355 356 356 354 354 352 352 351 350 351 352 350 349 346 342 337 336 337 340 342 338 343 340 337 337 336 338 336 335 333
359 357 355 351 350 351 352 353 353 354 354 355 354 353 351 349 347 346 346 347 348 348 348 347 344 337 339 340 343 344 346 344 343 341 339 341 340 338 337 337 339 335 333
359 357 355 351 350 349 348 348 349 350 350 350 347 344 343 341 339 338 339 341 342 342 342 342 341 339 341 338 337 339 343 344 344 345 345 343 344 340 339 338 339 336 333
357 355 354 353 349 348 345 346 345 343 343 340 338 336 335 335 337 336 335 336 336 337 337 337 337 338 337 339 340 343 344 344 342 341 341 341 342 342 341 340 340 338 335
354 353 353 350 347 345 344 342 340 338 334 332 333 334 336 335 332 333 331 331 331 332 333 332 331 330 331 333 336 338 337 336 334 333 334 335 336 338 339 340 336 331 327
351 349 347 344 343 343 342 339 334 331 330 331 332 333 330 330 328 327 327 328 328 329 330 329 327 328 328 329 329 329 329 327 326 325 326 328 330 331 334 332 328 325 322
348 346 344 343 342 341 339 335 330 329 329 329 329 329 329 327 326 326 327 329 328 327 325 326 327 326 327 327 327 328 327 325 325 326 325 325 324 325 327 329 328 326 327
345 343 342 341 341 340 337 332 331 330 329 329 328 328 327 326 325 325 326 327 326 323 322 322 323 323 323 324 324 324 323 322 320 319 319 321 322 322 325 327 327 326 324
343 342 340 339 339 339 338 334 333 331 331 330 328 326 325 325 325 324 324 324 323 321 320 321 321 321 322 321 321 321 320 320 319 318 319 318 318 317 317 318 319 320 319
342 340 338 338 339 340 339 339 335 334 334 332 330 326 325 324 323 322 322 322 322 322 322 323 323 323 324 324 324 324 323 322 321 320 321 321 323 322 321 321 322 322 320
341 339 337 337 338 340 339 338 338 338 334 327 331 330 328 326 325 325 326 325 324 322 321 319 320 321 321 320 319 320 321 322 323 324 323 323 323 323 322 322 322 323 323
341 339 337 337 337 339 340 338 335 333 325 324 326 326 326 326 326 327 326 315 313 312 314 318 320 320 320 319 317 318 319 320 319 319 318 317 315 316 316 314 316 318 318
341 339 338 338 339 340 341 338 328 331 327 325 324 324 325 325 326 325 319 313 312 312 313 315 313 313 312 316 319 317 316 315 314 313 313 312 312 312 311 312 312 312 312
340 339 338 339 340 340 340 340 330 330 328 326 325 326 327 326 325 320 315 313 312 312 312 312 312 312 311 313 316 315 313 312 312 311 312 313 312 311 311 311 311 311 311
Wind_Speed
5 16 21 23 24 24 26 25 26 25 23 23 22 19 22 23 23 20 17 15 16 17 15 16 18 17 16 16 15 18 15 16 13 10 13 13 13 13 13 13 13 16 18
5 10 18 22 27 24 25 24 26 26 23 22 21 19 18 18 18 17 16 17 17 17 16 16 17 19 16 14 13 9 11 11 7 4 3 3 4 5 9 10 11 13 14
8 7 14 21 23 26 25 25 26 25 25 22 21 20 14 14 15 18 19 17 17 17 18 17 17 15 17 14 14 13 12 11 7 4 3 2 2 5 5 6 9 10 12
6 5 10 17 25 29 27 25 25 25 24 24 22 20 17 15 15 14 15 16 15 16 16 16 16 16 16 15 14 13 12 11 12 9 8 13 9 2 4 5 13 11 13
9 10 15 24 22 27 31 30 26 26 26 26 23 21 19 17 12 10 10 14 13 16 16 15 17 15 14 14 14 12 12 11 12 11 9 9 10 9 6 4 8 14 9
11 9 15 16 18 22 28 32 30 31 30 26 24 22 21 19 16 14 13 13 11 11 12 12 12 13 15 16 15 14 14 14 15 14 13 13 9 5 5 4 4 6 10
13 9 10 17 21 24 27 30 30 32 29 28 25 23 22 19 18 15 12 12 11 13 13 11 12 13 16 16 16 16 15 14 15 16 17 16 15 15 12 8 6 3 5
9 12 13 20 24 25 27 28 30 30 28 29 29 26 24 22 20 18 17 17 16 14 13 11 11 13 12 11 12 14 16 15 15 16 15 15 16 14 15 11 4 2 2
9 12 11 21 23 25 29 32 32 32 30 30 28 28 26 25 23 21 20 19 18 16 15 16 15 13 13 15 16 16 15 15 14 15 15 16 14 14 15 16 14 6 2
6 7 9 18 24 27 29 28 30 31 32 30 29 28 26 23 24 23 23 23 20 18 18 18 16 17 14 13 8 13 15 15 13 12 15 17 16 16 16 14 14 13 9
3 5 6 13 18 19 21 22 22 23 24 24 24 23 23 21 19 21 23 23 20 24 23 23 21 19 14 16 11 8 10 13 13 12 14 19 18 17 16 14 13 15 14
5 5 6 8 8 8 9 10 12 13 14 14 14 17 17 17 18 19 20 20 22 21 23 22 16 16 18 18 21 15 13 14 14 13 15 18 18 19 17 16 16 15 15
8 8 9 11 15 14 12 9 6 4 4 4 5 4 5 6 5 6 7 8 10 9 11 14 17 19 15 13 13 12 16 17 12 14 19 20 19 20 20 19 17 17 16
9 10 10 12 13 13 12 10 9 9 9 9 9 8 6 7 7 6 7 8 8 8 8 7 7 7 8 9 10 10 11 9 14 18 19 21 21 23 22 22 20 17 16
11 11 11 11 13 14 15 19 18 17 17 17 16 14 11 9 9 10 10 10 12 13 13 13 10 8 8 7 9 10 14 12 14 16 17 19 20 20 22 24 23 21 20
13 12 12 15 15 14 17 20 20 19 18 18 16 12 11 11 14 15 15 16 15 15 15 16 15 14 13 12 9 8 8 8 10 11 13 14 14 15 19 21 24 25 27
14 13 11 14 15 16 21 22 20 18 17 17 16 15 15 17 16 16 17 19 20 17 20 20 19 20 20 20 17 12 10 12 14 15 16 16 13 13 13 10 9 3 5
14 12 14 17 17 22 22 22 19 19 19 18 16 15 16 17 18 19 20 21 21 23 22 23 22 23 24 22 21 19 18 21 24 24 23 21 20 16 7 6 14 19 22
15 15 18 22 26 25 24 23 22 21 20 19 18 16 17 17 17 18 17 17 19 21 22 23 23 25 24 22 22 22 23 24 26 28 28 25 22 18 18 20 18 16 12
20 22 24 28 28 26 25 25 22 21 21 19 18 16 17 19 19 18 17 15 17 20 22 24 24 23 24 23 22 21 22 24 24 23 22 21 20 20 21 18 12 10 8
22 26 26 26 29 27 26 25 22 21 20 18 18 19 19 20 20 19 17 17 18 20 21 22 22 22 22 22 22 22 24 22 22 22 22 21 21 22 20 18 17 14 9
22 22 23 26 28 26 26 24 22 20 18 17 18 18 17 17 17 17 16 15 16 17 16 16 16 16 16 16 17 17 18 17 18 18 16 16 15 13 11 12 10 8 6
22 22 25 27 26 24 23 23 20 19 17 17 17 16 14 13 11 11 12 13 12 14 14 15 16 17 17 18 18 17 15 15 15 14 14 14 14 14 15 15 14 12 10
23 25 27 23 25 22 20 20 21 20 20 19 17 15 14 13 11 10 11 13 15 16 16 16 16 16 17 18 19 20 19 18 18 17 16 17 18 18 17 18 18 17 16
24 27 24 24 26 23 20 20 20 22 20 18 16 15 13 11 11 11 12 13 13 13 14 14 14 15 16 13 14 15 15 15 15 14 15 17 17 17 18 17 16 15 15
25 24 27 28 26 22 22 22 20 22 21 19 16 14 12 11 11 13 14 12 10 10 10 11 10 11 13 13 9 10 11 11 10 11 12 10 11 10 10 12 13 13 14
Wind_Direction
232 201 201 200 210 212 211 218 219 217 222 223 224 228 229 241 244 246 252 248 249 256 261 266 270 272 273 277 284 279 286 313 305 289 296 297 287 271 273 275 272 265 256
182 186 192 191 205 206 215 219 224 224 224 214 217 217 227 239 237 236 244 248 254 256 269 275 277 270 288 288 301 297 303 308 268 283 320 334 324 289 260 276 275 261 249
205 192 186 194 200 206 207 213 218 223 226 219 215 223 226 230 234 239 249 251 256 260 266 267 277 280 285 294 301 304 302 309 317 300 274 311 282 324 287 284 284 282 268
212 208 191 195 197 209 216 212 217 226 226 225 221 220 229 237 247 259 267 266 264 267 267 273 281 293 295 290 303 307 306 294 294 301 271 259 257 275 313 298 317 289 279
204 205 199 211 200 204 213 215 219 228 229 226 228 231 236 245 261 269 265 265 262 263 266 270 272 279 286 287 286 291 296 287 282 285 293 296 289 264 249 296 316 317 306
209 210 208 213 205 202 210 216 221 227 227 227 230 232 242 254 258 267 273 282 277 271 270 266 265 273 288 283 284 282 279 280 277 274 271 272 269 296 259 260 293 293 311
199 195 183 198 200 202 206 214 222 228 227 227 228 234 241 251 259 266 271 293 291 275 272 272 271 273 280 279 278 276 272 269 268 277 278 278 268 269 272 273 279 276 306
193 201 194 195 205 204 209 213 221 227 227 228 232 233 237 243 251 252 259 268 269 274 275 284 282 279 278 264 262 267 270 268 276 284 269 271 272 276 265 263 259 296 301
186 200 191 193 201 204 214 218 222 227 228 231 234 235 240 243 252 258 261 268 271 277 276 278 277 271 268 263 251 244 248 253 271 279 272 274 268 265 274 272 260 243 278
199 175 188 192 205 214 223 224 227 231 234 234 239 243 246 252 256 262 267 268 272 274 274 272 267 266 264 267 273 272 242 238 258 273 272 268 268 271 266 272 262 252 246
229 165 187 200 207 211 218 224 228 232 239 243 248 252 256 260 266 269 271 275 275 275 270 267 268 257 283 276 276 304 269 260 274 280 274 270 272 272 259 261 259 251 242
101 113 117 118 126 157 185 205 221 233 243 250 254 262 265 270 276 281 275 274 274 275 276 271 257 262 286 278 289 292 268 288 275 288 288 279 271 266 260 255 258 253 244
87 82 76 81 91 101 104 105 112 144 185 202 217 231 256 262 288 306 312 313 303 308 300 282 278 290 300 300 306 298 292 288 276 291 289 277 268 264 260 255 253 252 248
90 94 86 84 84 84 85 92 88 105 120 124 115 103 82 76 66 55 39 32 26 12 7 357 351 16 29 14 357 335 316 283 290 295 296 281 270 267 260 248 247 244 241
103 107 108 102 95 90 85 95 100 103 108 106 101 94 91 83 68 58 48 39 39 43 43 42 32 358 357 334 293 306 310 308 312 310 305 290 280 269 270 266 253 236 230
120 118 111 107 101 98 100 104 104 104 106 101 97 97 90 75 61 55 49 47 39 33 31 34 34 24 11 354 349 326 331 323 321 328 322 318 313 299 280 276 265 251 235
128 125 115 110 109 114 117 112 111 109 101 99 98 95 85 74 69 66 64 60 58 59 58 56 53 47 41 34 30 24 24 28 25 11 358 347 340 322 310 304 247 175 33
135 129 123 117 119 126 122 120 116 108 103 97 96 95 88 82 80 72 67 71 72 71 62 59 56 54 47 44 50 56 60 60 53 48 40 39 26 8 349 127 98 90 89
136 131 130 130 133 132 132 125 118 113 107 101 97 98 105 100 92 85 82 82 81 71 65 63 61 60 54 52 56 56 60 56 55 55 51 52 57 64 79 83 99 106 108
133 133 135 136 137 139 138 132 127 121 114 110 105 103 100 101 99 99 100 93 84 81 76 72 69 66 61 57 57 57 60 61 60 56 53 50 48 39 46 47 52 87 73
137 140 143 144 146 146 143 136 136 130 126 119 112 110 106 101 97 97 97 95 89 87 83 78 72 67 62 60 57 54 59 62 62 58 55 55 51 53 55 56 58 60 58
144 150 142 144 150 151 147 145 144 142 139 135 126 116 112 107 105 99 96 91 86 80 72 64 57 50 46 43 41 43 46 46 50 46 41 33 26 26 28 28 24 19 7
156 152 143 148 155 156 152 147 148 152 147 140 138 134 127 118 109 97 90 81 72 66 60 55 54 49 51 54 49 45 46 47 45 41 36 32 35 41 45 45 46 37 30
156 152 150 150 157 162 161 152 152 153 148 140 140 136 132 127 119 108 99 92 81 73 68 66 65 63 60 58 55 58 61 61 60 58 54 53 53 55 56 49 47 51 50
156 156 154 156 161 164 162 159 158 162 156 151 148 144 140 138 131 122 114 99 88 80 79 75 66 54 48 44 52 55 54 55 56 52 53 52 42 41 42 43 44 44 37
153 155 160 162 163 165 166 167 166 169 167 163 163 161 156 147 141 137 125 113 103 91 84 81 70 60 49 45 67 59 55 54 54 48 48 46 44 42 38 31 27 24 20